Current weather by "City, St" or "zip code"  
 

Current Conditions: HARBOR SPRINGS

Clear


73.0 F

Last Updated on Jun 17 2024, 11:55 PM EDT
Humidity: 85%
Wind Speed: 3.4 mph
Barometer 29.92 in
Dewpoint: 68.4 F
Visibility: 10.00 mi
Precip: --
Heat Index: 74.1 F
Wind Chill: NA
Current conditions at:

HARBOR SPRINGS (KMGN)

Lat: 45.43 Lon: 84.91

active severe weather and emergency alerts image image weather storm and storm spotter reports image weather observation monitoring service image
Active
Alerts
Storm Reports Obs
Monitoring

Sign-up For Email & Text Message Weather Alert Notification Services



Advertise Here

Observation History for HARBOR SPRINGS


Time Wind
(mph)
Vis
(mi)
Weather Precip (in) Temperature (F) Relative
Humidity
Wind
Chill
(F)
Heat
Index
(F)
Pressure
Air Dwpt altimeter
(in)
sea level
(mb)
Rmks
11:55 PM EDT 3.4 10.00 Clear -- 73.0 68.4 85% NA 74.1 29.92 1013.2
11:35 PM EDT E 4.7 10.00 Clear -- 72.5 68.4 87% NA 73.6 29.92 1013.2
10:35 PM EDT 5.8 10.00 Mostly Cloudy -- 74.7 68.5 81% NA 75.6 29.91 1012.9
10:15 PM EDT 5.8 10.00 Partly Cloudy -- 74.5 68.5 82% NA 75.6 29.91 1012.9
09:55 PM EDT 4.7 10.00 Clear -- 74.7 68.5 81% NA 75.6 29.90 1012.5
08:35 PM EDT E 4.7 10.00 Clear -- 77.5 68.0 72% NA 78.4 29.88 1011.9
07:55 PM EDT E 4.7 10.00 Clear -- 79.0 67.6 68% NA 79.7 29.89 1012.2
06:55 PM EDT SE 3.4 10.00 Clear -- 78.8 67.1 67% NA 79.5 29.89 1012.2
06:35 PM EDT 3.4 10.00 Clear -- 79.2 66.9 66% NA 79.9 29.89 1012.2
05:15 PM EDT SW 3.4 10.00 Clear -- 70.3 61.5 74% NA 70.5 29.89 1012.2
04:55 PM EDT S 3.4 10.00 Clear -- 72.3 62.4 71% NA 72.7 29.90 1012.5
04:35 PM EDT 6.9 10.00 Partly Cloudy -- 74.8 63.7 68% NA 75.2 29.91 1012.9
03:55 PM EDT NW 12.8 10.00 Cloudy -- 74.3 65.1 73% NA 74.8 29.94 1013.9
03:35 PM EDT 9.2 10.00 Mostly Cloudy -- 82.8 68.7 63% NA 86.2 29.90 1012.5
03:15 PM EDT W 4.7 10.00 Mostly Cloudy -- 79.2 69.1 71% NA 81.7 29.90 1012.5
02:55 PM EDT 4.7 10.00 Cloudy -- 77.4 67.8 72% NA 78.3 29.89 1012.2
02:15 PM EDT W 4.7 10.00 Mostly Cloudy -- 86.4 70.2 59% NA 91.2 29.88 1011.9
12:35 PM EDT W 5.8 10.00 Mostly Cloudy -- 84.0 69.3 61% NA 88.0 29.88 1011.9
12:15 PM EDT 5.8 10.00 Mostly Cloudy -- 82.4 68.5 63% NA 85.6 29.88 1011.9
09:15 AM EDT W 3.4 10.00 Clear -- 77.9 65.3 65% NA 78.4 29.88 1011.9
08:35 AM EDT 0.0 10.00 Partly Cloudy -- 75.4 65.3 71% NA 75.9 29.88 1011.9
07:35 AM EDT 0.0 10.00 Clear -- 73.4 64.9 75% NA 73.9 29.85 1010.8
07:15 AM EDT 0.0 10.00 Clear -- 72.1 64.6 77% NA 72.7 29.84 1010.5
06:55 AM EDT 0.0 10.00 Clear -- 70.7 64.4 80% NA 71.2 29.84 1010.5

Regional Weather Observation


HARBOR SPRINGS (KMGN)

Clear
73.0 F

CHARLEVOIX (KCVX)

Clear
73.6 F

PELLSTON (KPLN)

Clear
70.0 F

MACKINAC ISLAND (KMCD)

Partly Cloudy
70.7 F

CHEBOYGAN (KSLH)

Clear
68.0 F

GAYLORD (KGLR)

Clear
75.0 F

Advertise Here


Advertise Here